CW8095 Weather Reports


time (UTC)temp
C
wind
direction
speed
KPH
gust
KPH
rain 1hr
cm
rain 24hr
cm
rain mn
cm
humidity
%
barometer
mb
20260903111517 21 116 4.8 6.4 0.00 0.00 0.00 73 1013.2
20260903110527 21 99 3.2 4.8 0.00 0.00 0.00 72 1013.1
20260903105603 21 144 3.2 11.3 0.00 0.00 0.00 72 1013.1
20260903104518 21 137 3.2 9.7 0.00 0.00 0.00 72 1013.1
20260903103529 21 146 1.6 3.2 0.00 0.00 0.00 71 1012.9
20260903102524 21 146 3.2 6.4 0.00 0.00 0.00 70 1012.9
20260903101520 22 123 1.6 4.8 0.00 0.00 0.00 70 1013.0
20260903100515 22 112 3.2 6.4 0.00 0.00 0.00 70 1013.0
20260903095526 22 116 3.2 6.4 0.00 0.00 0.00 70 1013.1
20260903094521 22 116 3.2 6.4 0.00 0.00 0.00 70 1013.1
20260903093517 22 114 3.2 6.4 0.00 0.00 0.00 70 1013.1
20260903092527 22 104 3.2 4.8 0.00 0.00 0.00 70 1013.1
20260903091523 22 101 3.2 4.8 0.00 0.00 0.00 70 1013.1
20260903090519 22 117 1.6 4.8 0.00 0.00 0.00 70 1012.9
20260903085549 22 113 1.6 4.8 0.00 0.00 0.00 70 1012.9
20260903084525 22 64 0.0 1.6 0.00 0.00 0.00 69 1012.9
20260903083520 22 48 3.2 4.8 0.00 0.00 0.00 68 1012.7
20260903082529 22 0.0 0.0 0.00 0.00 0.00 68 1012.8
20260903081524 22 0.0 0.0 0.00 0.00 0.00 68 1012.9
20260903080531 22 183 0.0 1.6 0.00 0.00 0.00 68 1013.0
20260903075531 22 184 1.6 4.8 0.00 0.00 0.00 68 1012.9
20260903074521 22 0.0 0.0 0.00 0.00 0.00 67 1012.9
20260903073518 22 158 0.0 3.2 0.00 0.00 0.00 67 1013.0
20260903072538 22 158 1.6 3.2 0.00 0.00 0.00 67 1013.2
20260903071531 22 161 1.6 4.8 0.00 0.00 0.00 66 1013.3
20260903070525 22 158 1.6 3.2 0.00 0.00 0.00 66 1013.2
20260903065527 22 160 1.6 4.8 0.00 0.00 0.00 65 1013.1
20260903064525 23 164 1.6 4.8 0.00 0.00 0.00 64 1013.1
20260903063529 23 155 0.0 3.2 0.00 0.00 0.00 63 1013.1
20260903062545 23 153 1.6 4.8 0.00 0.00 0.00 63 1013.3
20260903061539 23 133 0.0 1.6 0.00 0.00 0.00 63 1013.4
20260903060607 23 137 1.6 3.2 0.00 0.00 0.00 62 1013.6
20260903055538 23 140 3.2 4.8 0.00 0.00 0.00 62 1013.5
20260903054522 23 148 1.6 6.4 0.00 0.00 0.00 61 1013.7
20260903053527 23 137 3.2 4.8 0.00 0.00 0.00 61 1013.7
20260903052534 23 137 3.2 6.4 0.00 0.00 0.00 60 1013.9
20260903051534 24 147 4.8 11.3 0.00 0.00 0.00 59 1013.8
20260903050541 24 119 1.6 9.7 0.00 0.00 0.00 58 1013.6
20260903045541 24 142 3.2 6.4 0.00 0.00 0.00 58 1013.7
20260903044603 25 141 3.2 9.7 0.00 0.00 0.00 57 1013.5
20260903043524 25 142 3.2 6.4 0.00 0.00 0.00 56 1013.6
20260903042520 25 121 1.6 3.2 0.00 0.00 0.00 55 1013.5
20260903041517 25 119 4.8 9.7 0.00 0.00 0.00 55 1013.4
20260903040529 26 126 6.4 12.9 0.00 0.00 0.00 54 1013.4
20260903035525 26 109 6.4 9.7 0.00 0.00 0.00 54 1013.4
20260903034526 26 125 9.7 16.1 0.00 0.00 0.00 54 1013.5
20260903033527 26 119 9.7 16.1 0.00 0.00 0.00 53 1013.6
20260903032545 26 113 8.0 14.5 0.00 0.00 0.00 53 1013.4
20260903031523 26 112 8.0 14.5 0.00 0.00 0.00 52 1013.3
20260903030526 27 115 8.0 17.7 0.00 0.00 0.00 52 1013.2
20260903025521 27 115 8.0 12.9 0.00 0.00 0.00 51 1013.1
20260903024516 27 111 8.0 14.5 0.00 0.00 0.00 50 1012.9
20260903023527 27 114 9.7 17.7 0.00 0.00 0.00 48 1012.8
20260903022521 28 107 9.7 16.1 0.00 0.00 0.00 47 1012.7
20260903021517 28 110 11.3 22.5 0.00 0.00 0.00 46 1012.5
20260903020527 28 110 9.7 17.7 0.00 0.00 0.00 45 1012.4
20260903015522 28 108 9.7 16.1 0.00 0.00 0.00 45 1012.3
20260903014517 29 112 9.7 20.9 0.00 0.00 0.00 44 1012.2
20260903013546 29 107 9.7 16.1 0.00 0.00 0.00 44 1012.2
20260903012521 30 121 9.7 22.5 0.00 0.00 0.00 43 1012.1
20260903011517 30 112 8.0 14.5 0.00 0.00 0.00 43 1012.0
20260903010527 30 119 8.0 20.9 0.00 0.00 0.00 42 1011.9
20260903005522 30 112 11.3 22.5 0.00 0.00 0.00 41 1011.8
20260903004517 31 122 11.3 22.5 0.00 0.00 0.00 39 1011.8
20260903003527 31 125 9.7 20.9 0.00 0.00 0.00 37 1011.8
20260903002522 32 114 9.7 22.5 0.00 0.00 0.00 33 1011.6
20260903001517 32 106 11.3 24.1 0.00 0.00 0.00 34 1011.5
20260903000527 32 114 11.3 24.1 0.00 0.00 0.00 33 1011.5
20260902235522 33 116 11.3 24.1 0.00 0.00 0.00 33 1011.3
20260902234518 34 93 11.3 20.9 0.00 0.00 0.00 31 1011.3
20260902233528 35 56 11.3 17.7 0.00 0.00 0.00 29 1011.3
20260902232523 35 61 11.3 22.5 0.00 0.00 0.00 29 1011.2
20260902231518 35 107 9.7 22.5 0.00 0.00 0.00 29 1011.1
20260902230528 36 68 8.0 14.5 0.00 0.00 0.00 27 1011.2
20260902225523 36 99 8.0 20.9 0.00 0.00 0.00 26 1011.2
20260902224518 37 57 11.3 24.1 0.00 0.00 0.00 25 1011.2
20260902223549 37 70 9.7 17.7 0.00 0.00 0.00 25 1011.2
20260902222524 37 65 9.7 22.5 0.00 0.00 0.00 25 1011.3
20260902221519 37 57 9.7 17.7 0.00 0.00 0.00 25 1011.4
20260902220528 37 61 6.4 14.5 0.00 0.00 0.00 24 1011.4
20260902215026 37 59 8.0 20.9 0.00 0.00 0.00 26 1011.6
20260902214021 37 67 9.7 17.7 0.00 0.00 0.00 25 1011.7
20260902213016 37 58 6.4 16.1 0.00 0.00 0.00 27 1011.7
20260902212026 37 83 9.7 16.1 0.00 0.00 0.00 26 1011.9
20260902211528 37 56 6.4 17.7 0.00 0.00 0.00 26 1012.0
20260902210543 37 53 8.0 16.1 0.00 0.00 0.00 25 1012.1
20260902205519 37 76 8.0 16.1 0.00 0.00 0.00 26 1012.2
20260902204528 37 79 6.4 14.5 0.00 0.00 0.00 26 1012.3
20260902203523 37 65 9.7 22.5 0.00 0.00 0.00 26 1012.4
20260902202518 37 73 9.7 17.7 0.00 0.00 0.00 26 1012.4
20260902201528 38 65 8.0 16.1 0.00 0.00 0.00 26 1012.7
20260902200543 38 84 6.4 17.7 0.00 0.00 0.00 27 1012.8
20260902195518 37 92 6.4 14.5 0.00 0.00 0.00 26 1012.9
20260902194528 37 59 6.4 14.5 0.00 0.00 0.00 27 1013.1
20260902193523 37 66 8.0 17.7 0.00 0.00 0.00 27 1013.2
20260902192518 37 60 6.4 16.1 0.00 0.00 0.00 27 1013.5
20260902191528 37 317 4.8 12.9 0.00 0.00 0.00 29 1013.6
20260902190523 37 74 8.0 20.9 0.00 0.00 0.00 28 1013.8
20260902185518 37 81 6.4 17.7 0.00 0.00 0.00 28 1013.8
20260902184548 37 54 4.8 11.3 0.00 0.00 0.00 29 1014.2
20260902183523 37 31 4.8 16.1 0.00 0.00 0.00 29 1014.2
20260902182518 37 83 3.2 11.3 0.00 0.00 0.00 30 1014.4
20260902181528 37 322 4.8 14.5 0.00 0.00 0.00 30 1014.7
20260902180523 36 58 3.2 12.9 0.00 0.00 0.00 30 1014.8
20260902175518 36 47 6.4 12.9 0.00 0.00 0.00 30 1015.1
20260902174528 36 97 3.2 12.9 0.00 0.00 0.00 31 1015.3
20260902173524 36 354 4.8 11.3 0.00 0.00 0.00 32 1015.4
20260902172519 35 87 4.8 11.3 0.00 0.00 0.00 33 1015.5
20260902171609 35 77 4.8 11.3 0.00 0.00 0.00 33 1015.7
20260902170525 35 119 6.4 12.9 0.00 0.00 0.00 33 1016.0
20260902165520 35 105 3.2 4.8 0.00 0.00 0.00 33 1016.0
20260902164529 35 50 3.2 4.8 0.00 0.00 0.00 34 1016.1
20260902163525 35 61 4.8 12.9 0.00 0.00 0.00 34 1016.2
20260902162520 34 122 3.2 9.7 0.00 0.00 0.00 34 1016.2
20260902161530 34 107 4.8 11.3 0.00 0.00 0.00 34 1016.3
20260902160545 34 58 3.2 9.7 0.00 0.00 0.00 34 1016.3
20260902155528 33 101 3.2 9.7 0.00 0.00 0.00 35 1016.4
20260902154521 33 103 4.8 11.3 0.00 0.00 0.00 37 1016.4
20260902153530 32 60 4.8 11.3 0.00 0.00 0.00 39 1016.4
20260902152600 31 128 3.2 6.4 0.00 0.00 0.00 41 1016.5
20260902151527 31 87 3.2 9.7 0.00 0.00 0.00 43 1016.3
20260902150522 30 95 3.2 9.7 0.00 0.00 0.00 44 1016.3
20260902145526 30 107 1.6 4.8 0.00 0.00 0.00 45 1016.4
20260902144517 29 105 1.6 4.8 0.00 0.00 0.00 47 1016.2
20260902143527 28 127 1.6 6.4 0.00 0.00 0.00 49 1016.4
20260902142523 28 113 4.8 6.4 0.00 0.00 0.00 50 1016.3
20260902141517 27 122 3.2 9.7 0.00 0.00 0.00 53 1016.3
20260902140547 26 127 3.2 4.8 0.00 0.00 0.00 55 1016.3
20260902135522 25 127 4.8 9.7 0.00 0.00 0.00 57 1016.3
20260902134537 25 109 3.2 6.4 0.00 0.00 0.00 58 1016.1
20260902133527 23 109 3.2 6.4 0.00 0.00 0.00 60 1016.3
20260902132522 23 109 3.2 9.7 0.00 0.00 0.00 62 1016.3
20260902131517 23 114 4.8 11.3 0.00 0.00 0.00 63 1016.3
20260902130527 23 103 4.8 9.7 0.00 0.00 0.00 63 1016.1
20260902125522 22 104 3.2 6.4 0.00 0.00 0.00 64 1015.9
20260902124518 22 106 3.2 4.8 0.00 0.00 0.00 66 1015.8
20260902123528 22 110 1.6 4.8 0.00 0.00 0.00 66 1015.7
20260902122522 22 117 1.6 3.2 0.00 0.00 0.00 66 1015.6
20260902121517 22 106 3.2 6.4 0.00 0.00 0.00 65 1015.6
20260902120527 22 102 3.2 4.8 0.00 0.00 0.00 65 1015.6
20260902115522 22 94 3.2 4.8 0.00 0.00 0.00 65 1015.5
20260902114517 22 96 3.2 6.4 0.00 0.00 0.00 65 1015.6
20260902113527 22 102 3.2 4.8 0.00 0.00 0.00 65 1015.6
20260902112522 22 94 3.2 4.8 0.00 0.00 0.00 65 1015.6